Wind_Speed
14 14 14 14 14 14 14 14 14 13 13 13 13 13 13 13 13 13 12 12 12 11 11 11 11 11 10 10 10 10 9 7 6 6 5 4 2 2 2 2 2 3 3 4
15 14 14 14 14 14 14 14 14 13 12 12 12 13 13 13 12 12 12 11 12 12 11 11 11 10 10 11 12 11 10 8 7 6 5 4 3 3 2 2 3 3 3 4
15 14 14 14 13 14 13 13 13 13 12 12 12 12 12 12 12 12 12 12 13 13 13 12 12 11 11 11 13 12 11 9 8 7 6 5 4 4 3 3 2 3 3 4
15 15 14 14 13 12 12 13 13 13 12 12 12 11 11 11 11 11 12 12 12 12 12 12 12 12 11 11 12 13 12 10 9 9 8 6 6 4 3 3 2 2 3 3
15 15 14 14 14 13 12 12 13 13 13 12 12 12 10 10 9 10 11 12 13 12 12 12 13 13 13 13 13 13 12 11 10 10 9 8 7 5 4 3 2 2 3 3
16 15 15 14 14 13 12 13 13 12 12 12 11 11 9 9 9 10 11 12 12 13 13 13 13 14 14 14 15 14 13 12 12 11 10 9 8 6 5 4 3 2 2 3
15 15 14 14 13 12 12 12 12 12 12 11 11 11 8 9 9 10 10 11 12 14 14 14 14 14 14 15 15 15 14 13 12 12 11 9 8 7 6 5 4 3 2 2
15 14 14 13 13 12 11 11 11 11 11 11 11 10 9 8 8 9 9 10 12 13 13 14 15 15 15 15 15 15 14 13 13 12 12 10 9 8 7 6 4 3 2 2
15 15 14 13 13 12 11 11 12 12 11 11 10 10 9 9 8 8 8 9 11 13 12 13 15 16 17 16 16 16 14 14 13 13 12 11 10 9 8 7 5 4 3 2
16 15 14 14 13 13 12 12 12 12 11 11 10 10 9 8 8 7 8 9 11 12 12 13 15 17 17 17 17 16 16 15 14 13 13 12 11 10 9 8 7 6 4 3
17 15 15 14 14 13 13 13 13 12 12 11 10 9 8 7 7 7 8 9 10 11 12 13 15 16 17 18 18 16 16 16 14 14 14 13 12 11 10 9 8 7 6 5
17 16 15 14 14 14 13 13 13 12 12 12 12 10 9 7 6 7 8 9 10 11 13 14 15 17 17 17 17 17 16 16 15 14 14 13 13 12 12 11 10 9 8 7
18 18 17 16 14 14 14 14 14 13 13 12 12 9 8 7 7 7 8 9 10 11 13 14 16 16 17 17 17 17 17 16 16 15 14 13 13 13 13 12 12 11 10 8
19 19 18 16 15 14 14 14 14 14 13 12 10 8 8 8 7 8 8 9 10 12 14 14 16 16 16 18 18 18 17 17 17 16 15 14 14 13 14 14 13 12 11 10
20 20 18 17 17 16 15 14 13 12 11 12 10 10 9 9 9 9 9 10 10 12 13 13 15 16 16 18 19 18 17 17 17 17 16 15 15 14 14 14 14 13 13 12
21 20 19 18 17 17 15 14 13 12 12 11 11 10 10 10 10 10 10 11 11 12 13 14 15 16 17 18 18 18 18 18 17 17 17 16 15 15 14 14 14 14 13 13
22 21 21 19 18 17 15 13 13 13 12 11 11 10 11 10 10 10 11 11 11 12 13 14 16 16 17 19 19 18 18 18 18 17 17 16 16 16 15 14 14 14 14 13
23 22 21 20 19 18 14 14 13 12 12 11 10 10 11 11 11 11 11 12 12 12 14 15 16 17 18 19 19 18 18 18 17 17 18 18 17 16 15 15 14 14 13 13
24 23 22 21 20 18 16 15 14 13 12 11 10 10 10 11 11 11 11 11 11 12 14 15 16 17 18 18 19 19 18 18 17 17 17 18 18 17 16 16 15 15 15 14
25 25 24 22 20 18 16 16 15 14 12 11 10 10 10 11 11 10 11 11 12 12 14 15 16 17 17 18 18 18 18 18 17 18 18 17 18 17 17 17 17 16 16 15
27 26 25 23 22 18 17 16 16 15 12 12 11 11 11 11 11 11 11 11 11 12 13 15 15 16 17 17 18 18 18 18 18 18 18 18 18 18 18 17 17 17 16 16
29 27 26 24 23 19 18 18 17 15 14 13 12 11 11 11 11 11 12 12 12 12 13 14 15 16 16 17 18 18 18 19 19 19 19 19 20 19 19 19 18 17 17 17
30 28 26 25 22 20 20 19 17 17 15 14 12 11 11 11 11 11 12 13 13 12 13 14 15 16 16 17 18 18 18 18 18 19 19 19 19 19 19 19 19 18 17 17
29 28 27 26 23 22 21 20 18 17 16 15 14 13 12 11 11 11 12 13 13 13 14 14 15 15 16 17 17 18 17 17 17 18 19 19 19 19 19 19 19 19 19 18
30 29 28 26 24 24 22 21 20 18 17 16 16 15 14 13 12 12 13 14 14 14 14 15 15 15 15 16 17 18 19 19 19 18 19 19 19 19 18 18 18 18 19 19
30 30 29 26 25 24 23 22 21 19 18 18 16 15 15 14 14 13 13 14 15 15 15 15 16 16 15 15 16 17 18 19 18 18 17 18 18 18 18 18 19 19 19 19
Wind_Direction
259 259 260 259 261 263 264 264 264 264 265 265 263 261 264 263 259 258 260 255 249 242 241 237 232 229 225 219 212 205 201 198 195 195 194 187 172 156 131 99 76 67 60 53
258 257 259 257 258 262 264 264 265 265 265 265 266 265 260 257 257 256 257 249 239 233 233 233 230 221 217 215 210 206 204 202 201 204 201 195 183 167 142 107 83 71 63 54
254 255 256 255 257 261 265 265 266 267 265 262 263 263 260 255 255 253 252 246 238 231 227 231 226 218 214 212 209 207 206 203 200 201 200 195 184 174 154 127 99 74 60 52
252 253 253 254 258 264 265 261 264 266 264 263 263 260 260 259 253 253 252 247 237 229 225 226 223 218 215 209 207 205 204 201 201 199 198 196 189 180 167 146 114 80 66 55
250 251 251 252 256 261 261 259 263 265 263 264 264 263 258 259 255 250 248 242 236 231 228 226 223 221 218 213 208 206 204 203 202 201 200 198 194 192 184 170 143 104 76 64
248 250 249 249 254 258 260 260 260 261 262 262 263 264 253 254 254 250 245 239 235 231 227 224 223 221 217 215 211 206 202 202 203 204 205 203 200 198 190 181 164 134 100 77
248 248 248 247 251 253 258 258 256 255 258 261 262 259 255 253 253 250 242 236 230 229 227 226 223 219 214 213 209 203 201 201 203 205 203 200 200 196 189 182 170 150 124 94
247 246 246 245 246 249 254 256 256 258 260 262 261 260 262 258 252 248 244 233 225 223 224 224 219 214 209 210 207 200 200 202 204 202 199 200 201 198 192 190 186 177 158 124
246 245 243 243 244 246 250 252 256 256 259 262 258 258 259 259 253 243 236 227 221 221 219 218 215 211 205 205 201 201 201 202 203 203 201 202 204 202 197 194 193 190 178 161
244 243 242 242 242 244 247 249 250 255 262 264 259 257 253 248 242 239 230 218 219 216 214 213 211 207 203 201 200 201 202 202 203 204 204 204 205 203 200 198 198 197 190 180
242 242 241 243 244 244 246 248 250 254 260 265 263 255 254 251 236 233 226 217 217 213 210 205 204 203 203 203 201 203 206 205 205 206 206 205 207 206 205 203 202 201 197 189
239 240 240 242 244 243 246 247 249 252 258 262 264 253 254 249 233 229 224 217 214 211 210 205 205 205 204 203 202 205 206 207 208 208 207 207 208 208 208 206 206 206 206 206
237 239 239 239 240 243 243 245 250 254 259 262 258 248 244 241 234 226 226 222 215 213 209 207 208 207 208 206 204 205 206 207 209 208 208 209 210 212 210 208 209 210 213 215
236 238 241 243 243 244 244 247 249 253 257 258 255 248 247 239 235 229 226 225 222 215 210 208 210 209 209 208 206 206 207 208 210 211 213 214 215 216 214 211 214 216 218 219
233 237 238 239 240 241 243 246 249 253 253 251 249 248 247 242 238 238 233 229 225 216 212 208 207 207 207 206 205 207 208 211 212 215 217 218 220 220 219 218 219 222 223 223
231 236 236 236 239 241 241 242 246 248 250 249 247 248 249 248 244 240 234 228 225 220 216 209 206 206 208 205 205 208 209 210 213 217 218 219 221 222 222 224 225 226 227 229
229 234 234 234 237 240 239 241 242 245 250 252 248 247 248 247 242 238 233 231 228 219 218 214 210 210 210 206 206 209 211 213 215 218 220 219 222 225 226 227 229 228 229 232
227 231 234 234 236 237 234 240 242 245 246 247 248 247 244 244 245 241 234 231 229 224 217 211 209 210 208 207 207 208 211 213 217 221 223 222 223 225 227 229 230 230 231 235
229 230 233 233 234 236 235 239 242 244 244 243 243 246 246 239 239 240 236 231 226 222 216 211 211 212 211 208 208 211 213 214 216 219 222 223 223 224 227 230 231 233 233 235
226 228 230 232 235 234 234 235 237 240 240 240 240 242 244 239 237 238 239 236 230 221 214 209 208 211 210 210 212 214 215 216 218 220 222 223 224 226 229 231 233 234 235 236
223 225 228 231 234 233 233 234 235 236 236 238 238 237 237 236 236 237 235 234 228 218 210 207 208 208 209 213 215 216 216 217 220 224 226 226 228 229 230 233 237 237 238 240
224 226 227 229 232 230 232 232 233 234 235 239 238 235 233 233 235 237 235 229 224 218 211 210 211 211 212 215 214 215 215 218 221 225 228 231 231 233 235 237 239 240 243 245
224 227 229 230 231 229 229 231 233 234 235 237 237 235 232 234 235 234 233 226 220 219 214 213 215 217 217 215 215 216 216 221 224 228 230 231 233 234 236 238 239 241 245 249
224 225 227 228 227 227 229 229 230 231 233 236 236 234 232 234 235 234 232 225 222 223 222 220 219 220 218 218 219 221 225 228 230 231 233 234 236 237 239 240 242 244 246 248
225 226 226 225 223 224 226 227 229 233 234 236 238 235 232 234 234 233 234 228 223 223 224 225 224 224 224 223 224 227 230 231 232 235 236 237 237 238 239 242 245 247 249 250
224 224 224 223 221 224 224 226 228 232 232 235 236 233 232 234 233 233 232 228 225 225 226 228 228 228 228 228 229 232 234 234 234 236 236 237 238 240 242 245 247 248 251 253
Height
5852 5854 5853 5853 5853 5853 5853 5853 5853 5853 5853 5853 5853 5854 5854 5854 5855 5855 5856 5857 5857 5858 5860 5862 5863 5864 5866 5867 5870 5871 5873 5874 5875 5876 5877 5877 5877 5877 5877 5876 5876 5875 5874 5874
5850 5850 5850 5850 5850 5850 5850 5849 5849 5849 5849 5850 5849 5850 5850 5851 5851 5852 5853 5853 5854 5856 5857 5859 5860 5862 5863 5865 5868 5869 5871 5872 5874 5875 5876 5876 5877 5877 5877 5876 5876 5875 5875 5874
5846 5847 5846 5847 5847 5847 5846 5846 5846 5846 5846 5846 5846 5847 5847 5848 5848 5849 5849 5850 5851 5853 5854 5856 5858 5860 5861 5863 5866 5867 5869 5871 5872 5873 5875 5876 5876 5876 5876 5876 5876 5875 5875 5874
5842 5842 5843 5843 5843 5843 5843 5843 5843 5842 5843 5843 5844 5844 5844 5844 5845 5846 5846 5847 5848 5850 5852 5854 5855 5857 5859 5861 5863 5865 5867 5869 5871 5872 5874 5875 5876 5876 5876 5876 5876 5875 5875 5874
5838 5839 5839 5840 5840 5840 5840 5840 5840 5839 5839 5840 5840 5841 5842 5841 5842 5843 5843 5844 5845 5847 5849 5851 5853 5855 5857 5859 5861 5863 5866 5868 5869 5871 5873 5874 5875 5875 5876 5876 5876 5875 5875 5874
5834 5835 5836 5836 5836 5837 5837 5837 5837 5836 5837 5838 5838 5838 5839 5839 5839 5840 5840 5841 5842 5844 5846 5848 5850 5852 5854 5857 5859 5861 5864 5866 5868 5870 5871 5873 5874 5874 5875 5875 5875 5875 5875 5875
5830 5831 5832 5832 5833 5833 5834 5834 5834 5834 5834 5835 5835 5834 5836 5836 5836 5836 5836 5837 5839 5840 5843 5845 5847 5850 5852 5854 5857 5859 5862 5864 5866 5868 5870 5871 5873 5874 5874 5875 5875 5875 5875 5875
5826 5828 5829 5829 5830 5830 5830 5831 5832 5832 5832 5832 5831 5831 5833 5833 5832 5833 5833 5834 5835 5837 5839 5842 5844 5847 5850 5852 5854 5857 5860 5862 5865 5866 5868 5870 5871 5872 5873 5874 5875 5875 5875 5875
5822 5824 5825 5825 5826 5827 5827 5828 5828 5829 5828 5829 5829 5829 5829 5829 5829 5830 5830 5831 5832 5834 5836 5838 5841 5844 5847 5850 5852 5855 5858 5860 5863 5865 5867 5868 5870 5871 5872 5873 5874 5874 5875 5875
5818 5820 5821 5822 5823 5823 5824 5824 5825 5825 5825 5825 5826 5826 5827 5826 5826 5827 5828 5829 5830 5831 5834 5836 5838 5841 5844 5847 5850 5853 5856 5858 5861 5863 5865 5867 5868 5870 5871 5872 5873 5874 5874 5874
5814 5816 5817 5818 5819 5820 5821 5822 5822 5822 5822 5823 5823 5825 5824 5824 5824 5824 5825 5826 5828 5829 5831 5834 5836 5839 5842 5845 5848 5851 5854 5856 5859 5861 5863 5865 5866 5868 5869 5870 5872 5873 5873 5874
5809 5811 5813 5815 5816 5816 5817 5818 5819 5820 5820 5819 5820 5824 5821 5822 5822 5822 5823 5824 5825 5827 5829 5831 5834 5837 5840 5842 5846 5848 5851 5854 5856 5859 5861 5863 5864 5866 5867 5869 5870 5871 5872 5873
5805 5807 5809 5811 5814 5814 5814 5814 5815 5816 5816 5816 5817 5821 5819 5819 5819 5820 5821 5822 5823 5825 5827 5829 5831 5834 5837 5840 5843 5846 5849 5851 5854 5856 5859 5861 5862 5864 5865 5867 5868 5870 5871 5872
5801 5803 5806 5808 5809 5810 5810 5811 5812 5812 5813 5813 5814 5816 5817 5817 5817 5818 5819 5820 5821 5823 5825 5827 5829 5832 5835 5837 5841 5844 5846 5849 5851 5854 5856 5858 5860 5861 5863 5864 5866 5868 5869 5870
5796 5798 5800 5802 5804 5806 5807 5807 5808 5809 5810 5811 5812 5813 5814 5814 5815 5816 5817 5818 5819 5820 5822 5824 5827 5829 5832 5835 5838 5841 5844 5846 5849 5851 5854 5856 5857 5859 5860 5862 5864 5865 5867 5868
5791 5794 5796 5798 5800 5801 5802 5804 5805 5805 5806 5808 5809 5810 5811 5811 5812 5813 5814 5815 5816 5818 5820 5822 5824 5826 5829 5832 5835 5838 5841 5844 5846 5848 5851 5853 5855 5856 5858 5859 5861 5863 5864 5865
5786 5789 5792 5794 5795 5796 5799 5801 5801 5802 5803 5804 5806 5807 5807 5808 5809 5810 5811 5812 5813 5815 5817 5818 5821 5824 5827 5830 5833 5835 5838 5841 5843 5845 5848 5849 5852 5853 5855 5857 5858 5860 5861 5863
5782 5784 5786 5789 5792 5793 5798 5797 5798 5799 5800 5801 5802 5803 5804 5805 5806 5807 5808 5809 5810 5812 5814 5816 5818 5820 5823 5826 5829 5832 5835 5838 5840 5842 5844 5846 5848 5850 5852 5854 5855 5857 5858 5859
5776 5779 5782 5784 5786 5789 5792 5793 5794 5795 5797 5798 5799 5800 5801 5802 5803 5804 5805 5807 5808 5809 5811 5813 5815 5818 5820 5823 5826 5829 5832 5834 5837 5839 5841 5843 5845 5847 5849 5851 5852 5853 5855 5856
5770 5773 5777 5779 5781 5784 5789 5789 5790 5793 5794 5795 5796 5797 5798 5799 5800 5802 5802 5803 5804 5806 5808 5810 5812 5815 5817 5820 5823 5826 5829 5831 5833 5836 5838 5840 5842 5844 5846 5847 5849 5850 5851 5853
5764 5767 5771 5774 5776 5780 5784 5785 5787 5790 5792 5791 5792 5793 5794 5796 5797 5798 5799 5800 5801 5803 5805 5807 5809 5812 5815 5817 5820 5823 5825 5828 5830 5832 5834 5836 5838 5840 5842 5844 5845 5846 5847 5849
5758 5762 5765 5768 5772 5778 5779 5780 5783 5785 5786 5787 5789 5790 5791 5792 5793 5795 5796 5797 5799 5800 5802 5805 5807 5809 5811 5814 5816 5819 5821 5824 5826 5829 5831 5833 5835 5836 5838 5840 5841 5842 5843 5845
5752 5757 5760 5764 5769 5772 5773 5776 5778 5780 5782 5784 5785 5787 5788 5789 5790 5791 5793 5794 5796 5798 5800 5802 5804 5806 5808 5811 5813 5816 5818 5820 5823 5825 5827 5828 5830 5832 5834 5835 5837 5838 5839 5840
5745 5750 5754 5758 5762 5765 5768 5770 5773 5775 5778 5779 5781 5783 5784 5786 5787 5788 5790 5791 5793 5795 5797 5799 5801 5803 5806 5808 5810 5812 5814 5817 5819 5821 5822 5824 5826 5828 5829 5831 5832 5834 5835 5836
5739 5743 5747 5751 5755 5759 5762 5765 5768 5771 5773 5775 5777 5779 5781 5782 5784 5785 5786 5788 5790 5792 5794 5796 5798 5801 5803 5804 5807 5809 5811 5813 5814 5816 5818 5820 5821 5823 5825 5826 5828 5829 5830 5831
5733 5737 5741 5746 5750 5753 5757 5760 5763 5766 5768 5771 5773 5775 5776 5778 5780 5782 5783 5785 5787 5789 5790 5793 5795 5797 5799 5801 5803 5805 5807 5809 5810 5812 5814 5815 5817 5819 5820 5821 5823 5823 5825 5825